RH
15 14 13 11 12 12 12 13 15 18 23 38 63 79 84 92 99 100 102 100 95 95 99 100 101 101 97 91 90 95 101 100 92 84 80 77 72 68 60 48 39 34
22 19 17 15 13 12 12 12 14 18 22 33 55 76 91 101 102 100 103 102 99 99 99 99 102 101 97 93 95 98 101 100 90 80 76 73 72 72 67 52 39 34
29 26 23 21 18 15 13 13 13 16 21 28 39 53 73 91 99 101 101 100 100 100 99 99 100 100 100 99 99 100 101 100 90 79 74 73 73 72 71 63 49 39
36 35 32 29 26 21 17 15 14 15 19 24 29 34 44 61 83 99 101 99 100 99 99 100 99 100 100 99 100 100 101 101 92 81 75 75 74 70 71 71 64 52
44 40 39 37 34 29 24 20 17 17 19 21 22 23 26 40 67 93 101 100 100 101 100 100 100 101 100 98 99 100 101 102 96 85 78 76 72 68 69 72 70 61
54 47 42 42 41 38 34 30 24 19 19 22 23 21 21 30 53 81 98 101 99 100 100 99 99 101 100 99 99 101 101 102 99 89 81 76 70 67 67 67 70 65
59 54 49 49 49 45 41 39 36 29 22 21 23 23 21 21 33 58 85 99 100 100 99 100 100 100 101 100 99 101 101 101 100 92 82 75 70 68 64 65 72 70
60 61 58 61 63 59 53 48 44 41 33 25 22 22 23 27 34 48 68 83 92 99 100 99 99 99 101 100 99 101 101 101 101 93 83 75 71 71 68 69 76 74
60 66 67 70 69 67 66 62 55 51 45 36 28 20 27 48 58 58 65 73 82 94 101 101 101 100 100 100 99 101 101 101 101 94 85 77 73 75 76 76 80 78
66 70 68 67 66 63 64 65 65 61 53 48 40 26 28 58 80 78 75 78 86 97 103 105 104 100 99 100 99 100 101 101 101 98 89 81 76 78 84 86 86 81
65 72 69 63 62 63 64 64 66 68 61 54 51 39 28 44 76 94 89 78 84 99 104 104 104 100 98 100 100 100 101 100 101 101 95 86 81 84 90 94 93 86
64 72 73 67 62 64 68 69 67 69 68 60 56 51 39 32 50 79 90 81 83 97 103 101 101 99 99 100 100 100 100 101 101 100 99 95 90 91 94 98 97 89
82 80 77 71 66 63 66 69 66 64 66 66 62 57 51 41 35 45 63 78 88 95 101 104 101 98 99 99 99 100 99 101 102 100 102 103 98 94 95 98 98 89
92 87 81 76 70 64 60 57 53 47 46 51 57 58 56 52 43 33 36 58 80 87 93 102 102 99 100 100 99 100 99 100 99 97 101 105 100 95 97 99 93 83
92 87 83 79 74 68 60 50 41 35 30 28 32 41 48 53 51 41 31 39 68 91 96 95 97 101 103 102 101 99 99 101 97 95 102 105 100 96 98 96 83 75
95 89 83 77 72 68 62 55 47 39 33 27 21 21 31 43 49 49 38 30 51 90 104 91 89 101 103 101 102 100 99 102 99 98 102 103 100 97 95 91 76 72
98 90 82 75 71 66 61 57 54 50 44 36 26 22 29 38 43 50 49 33 32 66 95 90 86 100 104 100 100 100 101 102 100 100 101 100 100 96 91 86 75 73
98 88 80 74 67 62 57 53 53 59 59 48 40 41 47 51 51 54 55 42 27 43 74 83 81 93 101 99 99 99 101 101 99 101 102 99 98 91 84 83 75 69
96 87 79 74 67 60 55 54 63 75 75 70 73 74 67 70 80 77 65 50 32 32 50 58 62 78 91 95 98 99 99 100 101 101 100 97 93 84 80 85 77 60
82 84 81 75 70 67 60 59 74 92 95 93 102 99 80 81 100 101 80 57 35 30 41 42 44 67 89 96 97 98 99 101 101 101 100 94 83 78 87 94 73 45
63 73 83 78 68 68 71 68 68 83 97 99 103 104 86 76 91 99 89 69 42 28 39 44 38 52 83 101 99 96 100 102 101 102 100 84 72 82 100 92 57 34
74 73 82 79 64 59 71 79 76 83 97 99 100 107 91 67 70 81 84 82 65 39 34 43 39 36 61 93 103 98 100 101 97 92 85 76 79 95 94 66 38 33
97 89 84 75 61 55 61 74 81 85 94 97 101 106 92 66 60 68 77 89 89 64 39 38 42 35 38 64 91 100 98 89 81 77 74 76 84 80 58 37 32 36
102 100 94 78 60 54 55 64 77 84 88 97 104 103 94 80 68 71 85 98 101 86 55 36 42 44 33 34 55 72 73 64 63 68 66 61 55 42 30 31 35 36
99 100 101 88 70 63 58 60 78 93 97 101 104 101 101 98 88 87 98 103 101 96 74 45 41 49 42 31 33 40 41 38 41 47 44 36 30 27 30 35 36 37
98 99 102 98 90 82 67 61 79 97 100 101 101 98 102 104 99 99 103 102 100 101 87 60 47 51 49 38 31 29 30 29 29 31 31 27 26 29 34 39 40 42
Wind_Speed
59 58 57 56 54 53 52 50 47 44 43 43 42 42 40 38 37 37 37 35 32 31 34 39 42 45 47 45 44 45 46 44 42 41 42 43 43 43 42 42 42 43
60 58 57 56 55 54 53 51 48 45 43 42 42 40 39 37 35 34 34 34 34 35 38 41 43 46 49 47 46 47 46 43 41 41 41 42 44 43 42 42 42 42
60 59 57 55 53 53 52 52 50 46 43 42 41 40 38 36 34 33 35 35 37 40 41 41 43 46 49 49 49 48 45 43 42 40 41 42 44 43 43 42 41 42
59 58 57 55 53 52 51 50 49 47 45 42 41 40 39 37 36 35 35 33 34 38 40 40 41 45 48 49 51 49 45 43 42 40 40 42 43 43 43 42 42 43
59 58 56 54 53 51 49 49 48 48 46 43 41 40 39 38 37 37 36 33 32 35 36 37 39 42 46 49 51 48 45 43 41 40 41 42 43 44 43 42 42 44
58 57 54 52 51 50 49 48 48 47 46 44 42 40 39 39 38 38 38 36 36 36 36 36 37 40 43 48 51 48 44 42 40 40 41 42 44 43 42 42 43 44
58 56 53 51 49 49 48 48 47 46 45 44 42 40 40 39 39 40 40 40 40 40 38 37 38 39 42 47 50 48 43 41 39 40 41 43 43 42 42 42 43 44
59 56 53 49 48 47 47 47 47 46 45 44 42 40 40 39 40 41 42 43 44 44 41 39 38 38 41 45 49 47 43 40 39 40 41 43 43 42 42 42 43 44
60 57 52 48 47 46 46 46 47 47 46 44 42 40 39 38 39 41 42 43 44 45 44 42 39 38 40 45 48 47 44 41 41 41 41 42 43 42 43 43 43 45
62 58 52 48 46 45 45 46 46 47 47 46 43 41 39 37 38 40 42 43 43 42 41 41 39 38 39 43 46 47 46 43 41 41 41 42 43 42 43 43 44 45
63 60 55 50 46 44 43 44 45 46 48 48 46 43 41 39 40 41 42 43 42 39 38 38 37 37 39 42 45 47 47 44 41 41 42 43 43 42 43 44 44 46
64 61 55 50 47 43 41 42 43 44 46 48 48 47 44 43 44 44 42 41 40 39 39 38 37 37 39 42 44 46 47 45 43 43 42 42 42 43 44 45 46 46
59 58 54 51 48 44 41 40 42 44 46 47 48 49 47 46 46 46 44 41 40 41 41 40 38 37 38 41 43 46 47 46 46 44 42 42 42 43 44 46 47 47
55 55 55 53 50 47 45 44 45 48 50 51 51 51 50 49 48 48 47 45 42 42 42 41 40 38 37 38 40 43 46 47 45 44 43 43 42 43 45 46 47 46
57 56 55 53 51 51 51 52 53 54 55 57 59 58 56 53 51 49 49 48 45 42 41 42 41 38 37 38 37 39 43 45 44 44 43 42 43 45 45 46 47 45
57 56 55 54 52 52 53 53 54 54 55 58 63 66 65 59 54 51 50 50 48 45 43 43 42 39 38 37 35 36 38 39 39 40 41 42 44 46 45 46 46 44
54 53 53 52 51 52 52 52 51 51 53 57 63 69 67 59 54 53 51 51 50 47 46 45 42 40 38 36 33 34 35 35 35 37 39 42 44 45 45 46 46 44
54 51 50 49 48 50 51 51 50 50 50 53 57 59 57 53 52 53 52 52 51 49 48 47 43 41 39 36 32 33 34 34 34 36 37 40 42 44 45 46 45 44
53 49 47 46 46 47 47 47 47 48 48 49 50 49 48 49 50 51 52 52 51 49 48 47 45 41 38 35 32 33 34 33 33 35 37 40 43 43 44 46 45 44
52 49 46 45 44 45 45 44 44 45 44 44 45 44 45 48 47 46 48 50 49 48 46 45 44 42 39 37 34 32 34 34 34 36 39 43 44 44 45 46 45 44
49 48 46 45 44 43 43 43 44 45 43 42 42 43 45 48 48 45 45 46 46 46 45 43 43 42 42 39 35 32 32 34 34 38 43 45 45 44 45 46 44 42
45 45 45 44 44 43 43 43 45 47 45 42 42 43 44 47 49 48 46 46 46 44 43 42 42 42 43 40 36 32 34 37 39 42 45 46 44 43 43 43 41 40
42 43 44 44 43 42 41 42 44 47 46 42 41 43 44 46 48 49 48 47 47 45 42 41 41 42 43 42 39 38 40 43 44 44 44 43 41 40 40 39 38 38
41 41 41 43 43 40 39 40 42 43 43 40 39 41 44 44 46 48 47 45 46 46 42 40 39 40 41 41 41 42 44 44 44 44 42 40 38 37 36 35 35 36
39 38 38 40 41 37 37 40 39 37 36 35 36 39 41 41 43 44 42 40 42 44 42 39 38 39 39 39 39 41 42 42 41 41 39 36 34 34 33 33 33 34
39 38 35 37 38 36 37 39 38 35 33 32 33 36 37 38 39 40 36 34 37 40 40 38 36 37 38 38 38 38 38 38 38 38 37 35 33 32 31 30 31 33
Wind_Direction
290 289 288 289 290 292 293 294 295 293 290 288 285 284 281 280 280 281 283 281 279 279 277 274 275 279 283 286 289 290 289 289 293 297 301 304 305 305 305 305 305 305
293 293 291 288 288 289 290 292 293 292 290 287 284 282 279 278 280 282 283 281 277 275 273 272 274 277 280 282 286 287 285 286 291 297 302 304 305 305 305 305 306 307
292 293 293 292 291 289 288 289 290 290 288 285 282 280 278 276 276 279 282 282 277 271 269 271 273 275 276 278 281 283 281 284 289 296 301 302 302 303 303 304 306 308
291 292 293 294 293 292 289 288 288 288 287 284 281 279 277 274 271 273 278 282 278 271 269 271 274 276 277 277 279 278 278 281 287 294 299 299 301 302 302 303 306 309
289 290 291 292 292 292 291 289 288 287 287 285 282 279 276 273 270 270 275 278 278 275 274 275 276 276 277 277 276 274 275 280 285 292 297 298 300 301 301 303 307 310
288 287 288 290 290 291 291 290 289 287 287 286 284 281 277 273 270 269 271 274 273 273 274 276 277 276 277 277 274 272 274 279 285 292 296 297 299 301 301 305 308 311
288 285 285 286 287 288 289 290 289 288 286 286 285 284 280 276 273 270 269 269 270 271 272 274 276 275 277 278 275 271 273 279 285 291 294 296 298 300 302 305 308 310
286 284 282 283 284 286 288 289 289 288 286 285 284 283 282 279 277 274 271 269 267 268 269 270 273 274 277 279 275 271 273 279 284 288 292 295 297 300 302 306 308 309
285 281 279 280 282 285 287 288 288 288 286 284 282 282 281 278 278 278 277 274 271 270 268 267 270 274 277 280 276 271 274 280 283 286 290 293 296 299 301 304 307 308
282 279 277 279 282 285 287 288 288 288 287 285 283 281 277 274 275 276 277 277 276 273 269 267 269 274 278 280 276 271 274 279 282 285 289 292 295 298 299 302 305 306
280 277 276 279 281 284 287 288 288 287 286 285 284 281 277 272 271 272 273 276 276 274 269 266 268 272 275 278 275 271 273 278 281 284 288 291 293 295 297 300 303 304
275 275 276 278 280 283 285 286 287 287 286 285 284 282 278 274 271 270 270 272 273 271 267 264 265 269 271 274 274 271 273 277 280 284 287 288 291 293 296 299 301 302
269 271 274 278 280 281 282 283 285 286 285 285 283 281 279 276 273 270 268 268 268 268 265 262 265 268 269 271 272 270 272 276 280 282 283 284 288 291 294 297 299 300
274 272 274 277 279 280 281 282 283 284 285 285 284 281 279 277 274 271 267 265 265 265 264 263 264 267 268 270 272 272 272 273 276 278 279 282 286 289 292 296 297 297
281 278 278 278 277 277 277 277 278 279 281 283 285 284 281 277 273 271 267 264 263 263 264 264 263 264 266 267 269 273 273 272 273 274 275 279 283 286 291 295 296 296
279 279 279 278 276 274 272 272 272 274 276 280 284 284 282 277 271 268 266 263 261 260 262 263 262 261 262 263 267 273 275 275 275 275 275 278 281 284 289 293 295 296
274 274 275 275 272 270 270 269 270 271 273 278 280 279 278 275 268 264 264 262 260 258 258 261 261 260 258 259 266 272 273 276 277 275 275 278 280 282 287 292 295 295
270 270 270 269 267 266 266 267 269 269 270 272 273 272 272 269 262 260 259 259 258 257 257 259 260 260 256 256 265 271 270 272 273 271 275 279 280 281 286 291 294 294
267 267 265 263 261 260 261 262 263 264 265 265 266 266 267 265 262 260 258 256 256 257 257 258 260 260 257 255 262 269 268 267 267 270 275 278 279 281 286 291 292 293
264 264 263 259 258 258 259 258 257 258 259 260 261 262 263 264 265 264 260 257 257 257 258 258 257 257 256 254 257 264 267 265 267 273 276 277 279 282 286 290 292 294
260 260 259 258 258 259 258 255 254 256 257 260 263 263 262 262 266 269 266 262 260 259 258 258 256 254 255 254 254 261 267 265 265 270 273 276 280 283 285 289 291 294
255 255 254 254 256 258 256 253 251 251 254 260 265 264 261 261 265 269 270 266 263 262 260 259 257 254 255 254 252 258 262 259 259 265 271 277 282 284 285 287 290 294
253 251 250 250 254 255 254 253 253 251 253 259 262 261 261 261 261 266 269 268 265 264 262 261 259 256 256 254 250 251 255 257 260 265 272 278 281 283 284 287 290 293
254 253 249 248 250 252 251 252 254 254 254 256 258 258 259 259 258 261 266 266 264 264 263 262 260 258 257 257 254 254 257 262 266 269 273 277 279 281 284 286 289 293
257 254 250 247 248 250 249 251 254 254 254 256 256 255 257 258 258 260 263 264 264 264 264 264 262 259 258 258 259 259 262 267 269 270 272 275 277 281 284 287 290 294
262 255 249 246 248 249 248 250 254 255 256 259 258 256 256 257 259 262 263 263 264 265 265 266 264 261 259 258 259 262 264 267 268 269 270 273 277 280 284 288 292 296